Regional Weather Roundup
Issued by NWS Little Rock, AR

Home | Current Version | Previous Version | Text Only | Print | Product List | Glossary Off
Versions: 1 2 3 4 5 6 7 8 9 10 11 12 13 14 15 16 17 18 19 20 21 22 23 24 25 26 27 28 29 30 31 32 33 34 35 36 37 38 39 40 41 42 43 44 45 46 47 48 49 50

000
ASUS44 KLZK 231705
RWRLZK

WEATHER ROUNDUP FOR ARKANSAS
NATIONAL WEATHER SERVICE LITTLE ROCK AR
1100 AM CST SUN NOV 23 2014

NOTE: "FAIR" INDICATES FEW OR NO CLOUDS BELOW 12,000 FEET WITH NO
SIGNIFICANT WEATHER AND/OR OBSTRUCTIONS TO VISIBILITY.

ARZ001-003-010-029-231800-
NORTHWEST ARKANSAS

CITY           SKY/WX    TMP DP  RH WIND       PRES   REMARKS
FAYETTEVILLE   PTSUNNY   61  56  83 S15       29.46F
FORT SMITH     PTSUNNY   63  58  83 NE7       29.46F
HARRISON       CLOUDY    55  55 100 SE6       29.49F FOG
BENTONVILLE    CLOUDY    61  54  77 S9        29.47F
ROGERS         CLOUDY    60  55  83 S13       29.47F
SILOAM SPGS    CLOUDY    61  52  72 S14       29.47F
HIGHFILL       CLOUDY    61  56  83 S17       29.45F
SPRINGDALE     CLOUDY    59  55  88 S9        29.49F
$$

ARZ004-005-016-231800-
NORTH CENTRAL ARKANSAS

CITY           SKY/WX    TMP DP  RH WIND       PRES   REMARKS
BATESVILLE     CLOUDY    57  57 100 E6        29.52F
FLIPPIN        CLOUDY    55  52  88 E3        29.51F
MTN HOME       LGT RAIN  55  55 100 SE5       29.51F FOG
$$

ARZ040-041-231800-
WEST CENTRAL ARKANSAS

CITY           SKY/WX    TMP DP  RH WIND       PRES   REMARKS
MENA           CLOUDY    63  61  94 S3        29.48F
MOUNT IDA      CLOUDY    60  58  92 CALM      29.47F FOG
$$

ARZ009-017-025-026-028-231800-
NORTHEAST ARKANSAS

CITY           SKY/WX    TMP DP  RH WIND       PRES   REMARKS
CORNING        LGT RAIN  57  57 100 SE14      29.57F
JONESBORO      LGT RAIN  58  57  97 SE10      29.56F
NEWPORT        LGT RAIN  59  58  96 SE17      29.54F
WALNUT RIDGE   CLOUDY    57  54  88 SE14      29.54F
BLYTHEVILLE    LGT RAIN  65  57  75 SE10      29.60F
$$

ARZ022-023-033-042-044-231800-
CENTRAL ARKANSAS

CITY           SKY/WX    TMP DP  RH WIND       PRES   REMARKS
LITTLE ROCK    LGT RAIN  60  57  89 SE8       29.52F FOG
N LITTLE ROCK  CLOUDY    58  58 100 S7        29.52F
JACKSONVILLE   LGT RAIN  59  59 100 SE7       29.52F
SEARCY         LGT RAIN  59  58  96 S9        29.53F
HOT SPRINGS    LGT RAIN  60  58  92 E3        29.50F
RUSSELLVILLE   LGT RAIN  58  57  97 CALM      29.50F
CLINTON        LGT RAIN  57  57 100 CALM      29.53F
$$

ARZ036-231800-
EAST ARKANSAS

CITY           SKY/WX    TMP DP  RH WIND       PRES   REMARKS
WEST MEMPHIS   LGT RAIN  59  59 100 SE15      29.56F FOG
$$

ARZ050-053-066-070-073-231800-
SOUTHWEST ARKANSAS

CITY           SKY/WX    TMP DP  RH WIND       PRES   REMARKS
ARKADELPHIA    LGT RAIN  61  61 100 CALM      29.50F FOG
CAMDEN         RAIN      61  59  94 CALM      29.50F
TEXARKANA      CLOUDY    62  62 100 SW8       29.50F
EL DORADO      LGT RAIN  62  60  93 CALM      29.51F FOG
DE QUEEN       CLOUDY    63  60  90 SW5       29.47F
$$

ARZ056-057-069-231800-
SOUTHEAST ARKANSAS

CITY           SKY/WX    TMP DP  RH WIND       PRES   REMARKS
PINE BLUFF     RAIN      59  58  96 E7        29.50F FOG
STUTTGART      CLOUDY    59  55  88 SE13G18   29.53F
MONTICELLO     RAIN      61  59  93 CALM      29.48F FOG

$$




USA.gov is the U.S. government's official web portal to all federal, state and local government web resources and services.